Location: Newark
(17.1333°N, 61.8333°W)
Time: 23:45:47
(UTC+00:00)

Envisat - Pass Details

Date: 29 July 2019
Orbit: 764 x 766 km, 98.1° (Epoch: 19 August)

Event Time Altitude Azimuth Distance (km) Brightness Sun altitude
Rises 23:43:03 0° 203° (SSW) 3,220 6.2 -14.4°
Reaches altitude 10° 23:46:11 10° 224° (SW) 2,296 5.7 -15.1°
Maximum altitude 23:49:17 16° 262° (W) 1,890 5.8 -15.8°
Drops below altitude 10° 23:52:25 10° 300° (WNW) 2,298 6.8 -16.5°
Sets 23:55:34 0° 321° (NW) 3,225 7.4 -17.1°
